Location: ?????
(55.8833°N, 37.6500°E)
Time: 00:28:15
(UTC+00:00)

Cosmos 2298 Rocket - Pass Details

Date: 27 February 2020
Orbit: 776 x 784 km, 74.0° (Epoch: 04 April)

Event Time Altitude Azimuth Distance (km) Brightness Sun altitude
Rises 17:20:26 0° 330° (NNW) 3,288 8.0 -20.5°
Reaches altitude 10° 17:22:50 10° 328° (NNW) 2,355 7.2 -20.9°
Maximum altitude 17:28:08 65° 248° (WSW) 866 4.4 -21.6°
Enters shadow 17:31:29 23° 172° (S) 1,633 5.4 -22.0°
